STARLINK-36659

Last updated on Sat Mar 14 2026 00:02:08 GMT+0000 (Coordinated Universal Time)

1 67833U 26033N 26071.84283128 -.00484356 00000+0 -25046-2 0 9993 2 67833 42.9970 252.0859 0001816 307.9497 52.1210 15.81357226 5125
UTC large
Height (km)
Speed (km/s)
/
Latitude / Longitude
Inclination (degrees)
Orbital Period (minutes)
Azimuth
Elevation
Range (km)
Doppler Factor

Next 0 passes for location: London (51.5072 / 0.1276)

Sorry there are no passes over London.